| time (UTC) | temp C | wind direction | speed KPH | gust KPH | rain 1hr cm | rain 24hr cm | rain mn cm | humidity % | barometer mb |
| 20260506080517 | 8 | 0.0 | 0.0 | 0.00 | 0.71 | 0.00 | 89 | 1013.4 | |
| 20260506072517 | 8 | 0.0 | 0.0 | 0.00 | 0.71 | 0.00 | 89 | 1013.2 | |
| 20260506071517 | 8 | 0.0 | 0.0 | 0.00 | 0.71 | 0.00 | 89 | 1013.0 | |
| 20260506070537 | 8 | 0.0 | 0.0 | 0.00 | 0.71 | 0.00 | 89 | 1012.8 | |
| 20260506062517 | 8 | 0.0 | 0.0 | 0.00 | 0.71 | 0.00 | 89 | 1012.8 | |
| 20260506061517 | 8 | 0.0 | 0.0 | 0.00 | 0.71 | 0.00 | 89 | 1013.0 | |
| 20260506060517 | 8 | 0.0 | 0.0 | 0.00 | 0.71 | 0.00 | 89 | 1013.0 | |
| 20260506050517 | 8 | 0.0 | 0.0 | 0.00 | 0.74 | 0.00 | 89 | 1012.5 | |
| 20260506044515 | 8 | 0.0 | 0.0 | 0.03 | 0.74 | 0.74 | 89 | 1012.6 | |
| 20260506043515 | 8 | 0.0 | 0.0 | 0.03 | 0.91 | 0.74 | 88 | 1012.6 | |
| 20260506042515 | 8 | 0.0 | 0.0 | 0.03 | 1.17 | 0.74 | 88 | 1012.8 | |
| 20260506041515 | 8 | 0.0 | 0.0 | 0.03 | 1.17 | 0.74 | 88 | 1012.8 | |
| 20260506040515 | 8 | 0.0 | 0.0 | 0.03 | 1.17 | 0.74 | 88 | 1012.8 | |
| 20260506035516 | 8 | 0.0 | 0.0 | 0.03 | 1.17 | 0.74 | 88 | 1012.8 | |
| 20260506034515 | 8 | 0.0 | 0.0 | 0.03 | 1.14 | 0.71 | 88 | 1012.7 | |
| 20260506033515 | 8 | 0.0 | 0.0 | 0.03 | 1.14 | 0.71 | 88 | 1012.8 | |
| 20260506032515 | 8 | 0.0 | 0.0 | 0.05 | 1.14 | 0.71 | 88 | 1012.8 | |
| 20260506031515 | 8 | 0.0 | 1.6 | 0.05 | 1.14 | 0.71 | 87 | 1012.9 | |
| 20260506025515 | 8 | 0.0 | 1.6 | 0.08 | 1.14 | 0.71 | 87 | 1012.8 | |
| 20260506024515 | 9 | 158 | 1.6 | 8.0 | 0.05 | 1.12 | 0.69 | 87 | 1012.7 |
| 20260506023515 | 9 | 270 | 1.6 | 4.8 | 0.05 | 1.12 | 0.69 | 87 | 1012.5 |
| 20260506022515 | 9 | 0.0 | 3.2 | 0.03 | 1.09 | 0.66 | 87 | 1012.5 | |
| 20260506021515 | 9 | 0.0 | 1.6 | 0.05 | 1.09 | 0.66 | 86 | 1012.6 | |
| 20260506020535 | 9 | 293 | 1.6 | 3.2 | 0.05 | 1.09 | 0.66 | 86 | 1012.3 |
| 20260506015535 | 9 | 0.0 | 0.0 | 0.05 | 1.07 | 0.64 | 86 | 1012.0 | |
| 20260506014515 | 9 | 0.0 | 3.2 | 0.05 | 1.07 | 0.64 | 86 | 1011.8 | |
| 20260506013517 | 9 | 0.0 | 1.6 | 0.08 | 1.07 | 0.64 | 86 | 1011.4 | |
| 20260506012517 | 9 | 0.0 | 0.0 | 0.08 | 1.07 | 0.64 | 86 | 1011.3 | |
| 20260506011517 | 9 | 0.0 | 0.0 | 0.08 | 1.04 | 0.61 | 86 | 1011.4 | |
| 20260506010517 | 9 | 0.0 | 1.6 | 0.08 | 1.04 | 0.61 | 85 | 1011.4 | |
| 20260506005517 | 9 | 0.0 | 0.0 | 0.05 | 1.02 | 0.58 | 85 | 1011.2 | |
| 20260506004537 | 9 | 0.0 | 1.6 | 0.05 | 1.02 | 0.58 | 85 | 1011.4 | |
| 20260506003517 | 10 | 0.0 | 1.6 | 0.03 | 0.99 | 0.56 | 85 | 1011.4 | |
| 20260506002517 | 10 | 0.0 | 0.0 | 0.03 | 0.99 | 0.56 | 85 | 1011.1 | |
| 20260506001517 | 10 | 0.0 | 0.0 | 0.00 | 0.97 | 0.53 | 85 | 1010.8 | |
| 20260506000517 | 10 | 0.0 | 0.0 | 0.03 | 0.97 | 0.53 | 85 | 1011.0 | |
| 20260505235517 | 10 | 0.0 | 1.6 | 0.03 | 0.97 | 0.53 | 85 | 1011.0 | |
| 20260505234517 | 10 | 0.0 | 0.0 | 0.03 | 0.97 | 0.53 | 85 | 1010.7 | |
| 20260505233517 | 10 | 0.0 | 0.0 | 0.03 | 0.97 | 0.53 | 85 | 1010.7 | |
| 20260505232517 | 10 | 0.0 | 0.0 | 0.03 | 0.97 | 0.53 | 84 | 1010.8 | |
| 20260505231517 | 10 | 0.0 | 0.0 | 0.03 | 0.97 | 0.53 | 84 | 1010.7 | |
| 20260505230517 | 10 | 0.0 | 0.0 | 0.00 | 0.94 | 0.51 | 83 | 1010.9 | |
| 20260505225517 | 10 | 0.0 | 1.6 | 0.03 | 0.94 | 0.51 | 84 | 1011.2 | |
| 20260505224517 | 10 | 0.0 | 0.0 | 0.03 | 0.94 | 0.51 | 83 | 1011.2 | |
| 20260505223517 | 10 | 0.0 | 0.0 | 0.03 | 0.94 | 0.51 | 83 | 1011.2 | |
| 20260505222517 | 10 | 0.0 | 1.6 | 0.05 | 0.94 | 0.51 | 83 | 1011.3 | |
| 20260505221537 | 10 | 0.0 | 1.6 | 0.05 | 0.94 | 0.51 | 83 | 1011.1 | |
| 20260505220516 | 10 | 0.0 | 0.0 | 0.05 | 0.94 | 0.51 | 83 | 1011.2 | |
| 20260505215517 | 10 | 0.0 | 1.6 | 0.03 | 0.91 | 0.48 | 83 | 1011.3 | |
| 20260505214516 | 10 | 0.0 | 3.2 | 0.03 | 0.91 | 0.48 | 83 | 1011.2 | |
| 20260505213516 | 10 | 0.0 | 1.6 | 0.03 | 0.91 | 0.48 | 83 | 1011.2 | |
| 20260505212517 | 10 | 0.0 | 0.0 | 0.03 | 0.89 | 0.46 | 83 | 1011.2 | |
| 20260505211516 | 10 | 0.0 | 0.0 | 0.03 | 0.89 | 0.46 | 84 | 1011.1 | |
| 20260505210537 | 10 | 0.0 | 1.6 | 0.03 | 0.89 | 0.46 | 84 | 1011.3 | |
| 20260505205516 | 10 | 338 | 1.6 | 4.8 | 0.03 | 0.89 | 0.46 | 84 | 1011.5 |
| 20260505204516 | 10 | 0.0 | 3.2 | 0.03 | 0.89 | 0.46 | 84 | 1011.7 | |
| 20260505203516 | 10 | 0.0 | 1.6 | 0.03 | 0.89 | 0.46 | 84 | 1011.7 | |
| 20260505202516 | 10 | 0.0 | 3.2 | 0.00 | 0.86 | 0.43 | 84 | 1011.7 | |
| 20260505201516 | 10 | 315 | 1.6 | 6.4 | 0.03 | 0.86 | 0.43 | 84 | 1011.8 |
| 20260505200516 | 10 | 315 | 1.6 | 6.4 | 0.05 | 0.86 | 0.43 | 84 | 1011.8 |
| 20260505195516 | 10 | 315 | 1.6 | 3.2 | 0.08 | 0.86 | 0.43 | 84 | 1012.1 |
| 20260505194536 | 10 | 0.0 | 3.2 | 0.08 | 0.86 | 0.43 | 84 | 1012.3 | |
| 20260505193516 | 10 | 315 | 1.6 | 4.8 | 0.10 | 0.86 | 0.43 | 84 | 1012.2 |
| 20260505192516 | 10 | 0 | 1.6 | 4.8 | 0.10 | 0.86 | 0.43 | 83 | 1012.1 |
| 20260505191516 | 10 | 0 | 1.6 | 3.2 | 0.10 | 0.84 | 0.41 | 83 | 1012.4 |
| 20260505190516 | 10 | 0.0 | 3.2 | 0.13 | 0.81 | 0.38 | 82 | 1012.7 | |
| 20260505185517 | 10 | 293 | 1.6 | 4.8 | 0.15 | 0.79 | 0.36 | 82 | 1012.8 |
| 20260505184516 | 11 | 0.0 | 1.6 | 0.18 | 0.79 | 0.36 | 81 | 1012.8 | |
| 20260505183516 | 11 | 0.0 | 3.2 | 0.15 | 0.76 | 0.33 | 81 | 1012.5 | |
| 20260505182516 | 11 | 0.0 | 4.8 | 0.15 | 0.76 | 0.33 | 80 | 1012.5 | |
| 20260505181516 | 11 | 0.0 | 3.2 | 0.13 | 0.74 | 0.30 | 79 | 1012.5 | |
| 20260505180516 | 11 | 0.0 | 3.2 | 0.08 | 0.69 | 0.25 | 77 | 1012.5 | |
| 20260505175516 | 11 | 0.0 | 1.6 | 0.03 | 0.64 | 0.20 | 76 | 1012.6 | |
| 20260505174516 | 11 | 293 | 1.6 | 3.2 | 0.00 | 0.61 | 0.18 | 76 | 1012.4 |
| 20260505173516 | 11 | 338 | 1.6 | 4.8 | 0.00 | 0.61 | 0.18 | 76 | 1012.2 |
| 20260505172536 | 11 | 0 | 3.2 | 6.4 | 0.00 | 0.61 | 0.18 | 76 | 1012.0 |
| 20260505171516 | 11 | 338 | 1.6 | 4.8 | 0.00 | 0.61 | 0.18 | 77 | 1012.0 |
| 20260505170516 | 11 | 338 | 1.6 | 4.8 | 0.00 | 0.61 | 0.18 | 76 | 1012.0 |
| 20260505165516 | 11 | 338 | 3.2 | 8.0 | 0.00 | 0.61 | 0.18 | 76 | 1012.1 |
| 20260505164516 | 11 | 315 | 1.6 | 4.8 | 0.00 | 0.61 | 0.18 | 78 | 1012.1 |
| 20260505163516 | 11 | 338 | 3.2 | 9.7 | 0.00 | 0.61 | 0.18 | 77 | 1012.0 |
| 20260505162516 | 11 | 315 | 1.6 | 4.8 | 0.00 | 0.61 | 0.18 | 78 | 1012.1 |
| 20260505161516 | 11 | 338 | 1.6 | 3.2 | 0.00 | 0.61 | 0.18 | 77 | 1012.0 |
| 20260505160516 | 10 | 45 | 1.6 | 4.8 | 0.00 | 0.61 | 0.18 | 76 | 1012.0 |
| 20260505152516 | 10 | 68 | 1.6 | 6.4 | 0.00 | 0.61 | 0.18 | 79 | 1010.8 |
| 20260505151516 | 10 | 338 | 1.6 | 6.4 | 0.00 | 0.61 | 0.18 | 80 | 1010.9 |
| 20260505150516 | 10 | 0 | 3.2 | 8.0 | 0.00 | 0.61 | 0.18 | 81 | 1010.8 |
| 20260505140536 | 9 | 0.0 | 1.6 | 0.08 | 0.61 | 0.18 | 83 | 1010.8 | |
| 20260505124515 | 10 | 338 | 1.6 | 6.4 | 0.03 | 0.48 | 0.05 | 77 | 1011.8 |
| 20260505123516 | 10 | 0 | 1.6 | 4.8 | 0.03 | 0.48 | 0.05 | 78 | 1011.8 |
| 20260505122515 | 10 | 315 | 1.6 | 8.0 | 0.03 | 0.48 | 0.05 | 78 | 1011.4 |
| 20260505121516 | 10 | 248 | 1.6 | 6.4 | 0.03 | 0.48 | 0.05 | 78 | 1011.5 |
| 20260505120515 | 10 | 0 | 1.6 | 4.8 | 0.00 | 0.46 | 0.03 | 79 | 1011.0 |
| 20260505115515 | 10 | 270 | 3.2 | 8.0 | 0.00 | 0.46 | 0.03 | 80 | 1010.2 |
| 20260505114516 | 10 | 293 | 3.2 | 11.3 | 0.00 | 0.46 | 0.03 | 82 | 1010.2 |
| 20260505113516 | 10 | 270 | 3.2 | 6.4 | 0.00 | 0.46 | 0.03 | 85 | 1009.9 |
| 20260505112515 | 10 | 0.0 | 3.2 | 0.00 | 0.46 | 0.03 | 85 | 1009.6 | |
| 20260505111515 | 10 | 0.0 | 1.6 | 0.00 | 0.46 | 0.03 | 86 | 1009.4 | |
| 20260505110515 | 10 | 0.0 | 1.6 | 0.00 | 0.46 | 0.03 | 86 | 1009.4 | |
| 20260505101515 | 11 | 0.0 | 4.8 | 0.00 | 0.46 | 0.03 | 85 | 1009.1 | |
| 20260505100515 | 11 | 0.0 | 3.2 | 0.00 | 0.46 | 0.03 | 86 | 1008.7 | |
| 20260505095517 | 11 | 315 | 1.6 | 3.2 | 0.00 | 0.46 | 0.03 | 86 | 1008.9 |
| 20260505094517 | 11 | 0.0 | 4.8 | 0.00 | 0.46 | 0.03 | 86 | 1008.7 | |
| 20260505093557 | 11 | 0.0 | 1.6 | 0.00 | 0.46 | 0.03 | 86 | 1008.5 | |
| 20260505092517 | 12 | 0.0 | 1.6 | 0.00 | 0.46 | 0.03 | 85 | 1008.4 | |
| 20260505091537 | 12 | 0.0 | 1.6 | 0.00 | 0.46 | 0.03 | 85 | 1008.2 | |
| 20260505090517 | 12 | 0.0 | 1.6 | 0.00 | 0.46 | 0.03 | 85 | 1008.2 | |
| 20260505085517 | 12 | 0.0 | 4.8 | 0.00 | 0.46 | 0.03 | 85 | 1008.0 | |
| 20260505084517 | 13 | 0.0 | 3.2 | 0.00 | 0.46 | 0.03 | 86 | 1008.2 | |
| 20260505083517 | 13 | 0 | 1.6 | 4.8 | 0.00 | 0.46 | 0.03 | 86 | 1007.7 |
| 20260505082517 | 14 | 0.0 | 1.6 | 0.00 | 0.46 | 0.03 | 86 | 1007.7 | |
| 20260505081517 | 14 | 0.0 | 0.0 | 0.00 | 0.46 | 0.03 | 86 | 1007.4 |